Regional Weather Roundup
Issued by NWS

Home | Current Version | Previous Version | Graphics & Text | Print | Product List | Glossary On
Versions: 1 2 3 4 5 6 7 8 9 10 11 12 13 14 15 16 17 18 19 20 21 22 23 24 25 26 27 28 29 30 31 32 33 34 35 36 37 38 39 40 41 42 43 44 45 46 47 48 49 50
991
ASUS44 KLIX 230701
RWRLA
LOUISIANA WEATHER ROUNDUP
NATIONAL WEATHER SERVICE NEW ORLEANS LA
200 AM CDT WED JUL 23 2014

NOTE: "FAIR" INDICATES FEW OR NO CLOUDS BELOW 12,000 FEET WITH NO
      SIGNIFICANT WEATHER AND/OR OBSTRUCTIONS TO VISIBILITY.
      SKY/WX - SKY CONDITION AND SIGNIFICANT WEATHER.
      TMP - AIR TEMPERATURE.    DP   - DEWPOINT TEMPERATURE.
      RH  - RELATIVE HUMIDITY.  PRES - PRESSURE.
      HX  - HEAT INDEX.         WCI  - WIND CHILL INDEX.

*  THESE STATIONS ARE NOT NWS OR FAA STATIONS AND ARE NOT UNDER
   NWS QUALITY CONTROL.

LAZ040-048-061>063-065-066-069-230800-
SOUTHEAST LOUISIANA

CITY           SKY/WX    TMP DP  RH WIND       PRES   REMARKS
N.O. AUDUBON   NOT AVBL
N.O. INTL ARPT CLOUDY    78  71  79 E5        30.02S
N.O. LAKEFRONT PTCLDY    80  74  81 E9        30.02S
N.O. DOWNTOWN* FAIR      81  70  69 E6        30.02S
SLIDELL        PTCLDY    72  69  90 NE5       30.03S
BATON ROUGE    PTCLDY    73  70  90 NE5       30.02F
BOOTHVILLE     MOCLDY    79  75  87 CALM      30.01F
BELLE CHASSE   PTCLDY    76  72  87 CALM      30.01S
BOGALUSA*        N/A     70  67  90 CALM      30.05F FOG
GALLIANO*      NOT AVBL
NEW ROADS*     FAIR      73  72  95 CALM      30.02F
GONZALES*      FAIR      75  75  99 CALM      30.01F
HAMMOND*       CLEAR     72  68  88 CALM      30.04F
HOUMA*         PTCLDY    76  71  85 CALM      30.01S
PORT FOURCHON* CLOUDY    77  66  69 N7        30.03R

$$

LAZ041-044-053-054-230800-
SOUTHWEST LOUISIANA

CITY           SKY/WX    TMP DP  RH WIND       PRES   REMARKS
LAKE CHARLES   CLEAR     76  73  91 W5        30.01F
LAFAYETTE      PTCLDY    75  72  90 NE5       30.03R
PATTERSON      PTCLDY    77  75  94 CALM      30.04F
SALT POINT       N/A     80  77  90 CALM      29.99F
NEW IBERIA     PTCLDY    77  73  87 NE6       30.02S
CHENAULT AIRPK CLEAR     77  73  86 CALM      30.03R

$$

LAZ027-028-230800-
CENTRAL LOUISIANA

CITY           SKY/WX    TMP DP  RH WIND       PRES   REMARKS
FORT POLK      CLEAR     76  72  87 CALM      30.03S
ALEXANDRIA INT PTCLDY    74  73  97 CALM      30.02S
ALEXANDRIA     PTCLDY    74  71  91 CALM      30.03F FOG

$$

LAZ001-002-230800-
NORTHWEST LOUISIANA

CITY           SKY/WX    TMP DP  RH WIND       PRES   REMARKS
SHREVEPORT     PTCLDY    74  70  87 CALM      30.05S
BARKSDALE AFB  CLEAR     73  70  89 N3        30.05F
DTN SHREVEPORT CLEAR     74  71  91 CALM      30.05S

$$

LAZ014-016-230800-
NORTHEAST LOUISIANA

CITY           SKY/WX    TMP DP  RH WIND       PRES   REMARKS
MONROE         CLEAR     73  70  90 CALM      30.04F
TALLULAH       CLOUDY    74  72  93 SE3       30.03F

$$




USA.gov is the U.S. government's official web portal to all federal, state and local government web resources and services.